Theta_e
327 327 329 329 330 330 329 327 330 330 329 330 330 330 330 330 330 328 327 328 330 327 327 327 327 328 328 328 328 329 328 329 328 328 328 328 328 328 326 328 328 326 323
326 325 328 329 330 330 330 328 326 330 330 330 331 330 329 329 329 328 328 327 328 328 328 326 325 327 327 328 328 328 328 328 328 329 330 330 330 330 329 329 328 322 313
325 324 327 329 329 328 330 327 327 330 331 331 331 330 330 330 330 329 328 328 327 327 326 326 325 327 327 328 328 327 328 328 328 328 329 329 329 328 326 327 322 322 319
324 323 327 326 327 327 330 330 328 327 329 330 331 330 330 330 328 327 327 328 326 327 327 327 327 327 327 327 327 326 326 326 328 327 328 327 325 322 320 321 321 321 320
324 323 325 325 327 327 329 330 329 329 329 329 330 331 331 330 330 329 329 328 328 326 327 327 328 328 327 326 326 326 324 326 327 326 326 324 321 319 317 317 320 322 324
323 323 324 324 328 328 323 327 328 329 329 329 331 331 331 330 330 329 329 329 328 327 327 328 328 328 327 327 326 325 328 326 325 325 323 322 320 320 323 321 322 325 323
323 323 322 323 327 326 324 322 325 325 323 324 326 330 331 331 330 330 330 329 329 329 328 327 327 328 328 327 327 327 326 323 322 322 323 323 324 323 324 325 324 324 324
322 323 322 322 326 326 326 325 328 324 323 323 324 324 329 331 331 330 330 330 330 330 328 327 328 328 328 328 327 321 323 324 327 326 323 325 324 323 323 322 325 323 325
321 322 322 321 323 325 326 324 326 326 323 321 322 323 325 326 327 325 323 323 326 328 329 329 328 322 323 323 321 322 322 321 321 322 323 323 324 326 325 324 325 324 319
321 320 321 321 321 322 325 324 324 326 325 323 321 324 325 327 328 327 326 326 326 321 320 323 321 319 320 320 320 320 319 319 318 317 314 311 312 313 314 313 310 310 309
321 320 319 321 322 321 325 324 325 325 327 325 323 320 323 326 323 325 326 325 324 323 324 326 324 321 321 321 322 321 320 320 317 317 315 315 315 315 315 313 311 312 312
321 322 319 319 322 322 326 327 326 329 327 328 326 324 322 318 318 318 318 324 321 320 319 319 318 317 316 319 319 320 319 318 314 313 316 319 317 315 315 313 313 313 310
322 322 319 318 322 323 326 327 327 328 329 326 326 325 324 323 321 313 313 316 318 316 313 311 309 305 313 318 318 317 311 309 313 318 318 315 313 312 311 309 308 307 307
324 323 321 319 322 324 325 326 327 326 326 326 325 323 323 322 320 313 310 313 314 317 311 309 305 303 305 305 305 306 308 310 317 318 313 310 310 310 308 306 306 304 305
324 324 321 319 320 324 325 326 326 324 323 326 322 322 321 322 320 314 308 312 317 316 313 309 304 303 303 306 311 314 313 314 319 315 311 309 307 307 304 303 303 304 303
325 324 321 319 322 323 325 326 325 324 324 322 323 321 320 320 319 316 305 312 314 318 317 315 314 313 311 312 313 315 316 319 315 313 310 308 306 304 304 304 303 302 302
326 325 323 320 323 323 323 324 323 324 323 321 319 321 320 319 318 317 308 308 312 318 318 318 316 317 318 317 318 319 317 313 312 310 307 306 303 303 303 302 302 301 301
326 326 324 322 320 323 323 323 324 321 319 320 319 318 317 319 319 318 316 305 311 313 315 313 319 321 322 322 318 314 310 309 309 307 306 302 303 303 302 302 301 301 300
327 327 324 324 322 321 323 323 324 321 319 319 317 317 317 317 319 319 318 309 310 312 313 313 316 322 322 319 314 312 311 309 307 304 303 303 302 302 302 302 301 299 299
327 327 326 324 325 322 321 322 322 322 320 318 318 317 316 317 315 316 314 313 313 313 314 315 318 321 320 317 312 310 307 305 303 303 302 302 302 301 301 300 300 300 299
329 327 327 325 323 324 322 321 321 320 320 319 319 318 317 317 316 315 314 314 315 315 315 316 319 317 314 311 310 308 304 303 302 301 302 301 300 301 301 300 299 298 299
331 328 326 326 326 323 324 323 321 320 319 320 319 319 319 316 316 315 314 315 316 316 320 319 316 315 312 311 310 305 303 302 301 301 301 299 300 301 300 299 298 298 297
331 330 327 326 326 326 324 323 323 322 320 319 320 319 318 315 315 314 314 314 314 316 318 318 315 312 311 309 306 302 301 301 300 300 300 300 299 299 299 299 297 296 295
332 332 329 327 326 326 325 325 324 324 323 322 320 319 318 316 315 315 315 315 315 316 316 313 311 310 306 302 301 300 300 299 300 299 299 300 299 298 299 297 295 294 294
329 331 331 329 327 326 327 326 325 325 325 324 322 318 315 314 316 316 317 316 314 312 310 308 307 304 302 301 300 298 297 298 299 299 299 298 298 297 296 294 293 292 291
331 328 330 331 329 328 327 327 327 326 326 324 321 317 317 316 315 315 313 310 308 307 306 304 303 302 301 299 299 298 296 296 297 298 298 298 296 295 293 292 291 290 289
Wind_Speed
10 9 7 8 6 7 10 11 10 12 12 13 15 20 21 26 28 31 28 25 23 22 23 25 27 29 33 30 27 28 25 19 12 7 18 21 21 20 17 12 12 11 15
12 10 8 10 7 7 11 11 10 14 13 14 16 19 24 25 29 30 28 27 28 24 22 25 26 30 28 29 29 30 21 20 19 13 15 18 17 17 16 18 14 11 10
17 13 10 10 8 7 11 11 14 13 14 13 17 18 21 21 24 24 24 24 23 23 24 27 27 29 30 30 28 21 19 14 17 18 14 18 16 15 17 20 13 13 13
21 15 12 10 9 8 10 10 11 15 15 12 16 17 19 20 21 23 22 19 21 22 22 24 27 29 31 28 25 28 17 14 23 23 22 22 19 16 18 17 14 15 14
23 18 13 11 8 7 10 12 12 13 15 15 14 13 16 15 17 21 21 21 20 20 21 21 23 23 25 28 28 22 9 20 24 22 17 13 13 14 18 19 17 14 17
26 21 16 12 8 11 12 13 14 14 14 19 16 14 14 20 18 19 19 20 19 20 22 21 21 28 32 26 20 11 9 27 22 20 17 20 21 20 18 16 16 16 8
28 23 19 15 12 15 13 12 12 17 16 16 17 19 20 19 21 21 22 22 20 19 24 24 27 29 26 21 16 8 22 22 19 23 25 26 23 24 22 20 19 19 20
29 26 22 17 17 15 13 12 17 20 16 20 21 22 23 22 22 20 20 19 18 21 25 25 25 21 17 18 15 15 16 17 14 12 22 14 17 17 15 17 16 19 11
25 28 26 21 21 17 18 16 14 17 16 16 19 21 23 22 21 21 21 21 22 22 20 20 20 18 17 18 18 17 13 11 9 8 7 5 5 7 8 8 8 5 4
24 30 29 26 25 20 22 21 17 15 16 16 16 17 18 21 19 19 19 19 20 20 22 20 18 18 18 17 15 14 12 9 7 6 5 4 3 2 2 2 2 1 1
26 30 31 29 29 25 26 22 20 17 15 19 16 15 16 18 16 16 17 19 19 20 20 20 18 18 17 14 15 14 13 13 12 7 5 3 5 5 3 3 7 5 5
26 28 33 30 32 29 28 26 23 19 17 13 19 18 15 15 15 15 12 17 15 15 18 18 18 18 17 15 15 13 13 12 9 8 5 10 17 16 15 12 10 8 8
28 29 34 33 32 32 32 29 25 23 17 18 21 20 18 15 14 17 15 12 16 15 16 20 18 20 20 16 13 13 11 10 11 11 20 20 19 18 17 15 12 12 13
29 29 36 36 33 33 32 31 29 27 22 22 20 23 20 21 19 19 19 15 16 15 20 20 21 20 18 15 12 9 9 10 11 22 22 19 15 13 14 11 11 11 16
29 30 36 37 35 35 34 34 32 29 29 23 25 22 22 27 24 24 27 23 18 18 23 21 20 19 19 16 12 10 14 15 22 22 22 19 15 12 13 12 15 16 19
29 30 32 31 33 32 32 26 27 26 25 28 22 24 24 24 23 24 29 27 23 22 22 22 20 19 18 16 16 16 16 20 24 21 18 15 15 13 15 13 14 14 14
28 29 31 31 30 29 29 29 26 27 23 27 28 24 26 25 27 24 29 32 28 24 22 20 19 19 20 18 18 21 27 27 23 18 17 14 14 16 15 12 12 11 12
34 33 32 30 31 27 29 29 28 26 25 31 31 28 16 24 30 27 29 33 32 32 30 26 23 20 21 24 32 32 30 25 20 19 16 19 18 15 12 11 11 11 9
36 34 33 30 33 32 31 30 30 28 29 28 31 27 27 19 31 34 34 38 37 36 33 28 23 16 27 33 35 32 28 24 22 22 21 18 17 15 15 11 9 8 5
37 34 34 33 30 33 31 29 28 27 28 30 34 34 26 23 24 37 40 37 37 36 34 28 19 28 36 37 35 30 28 25 25 23 20 19 17 14 13 10 6 4 5
31 36 37 29 31 30 31 28 28 29 27 27 33 38 36 33 30 37 43 39 34 32 30 25 31 36 38 37 35 31 29 27 24 21 20 17 17 16 12 8 6 4 4
31 32 38 33 27 29 28 33 29 30 31 29 29 38 41 40 40 41 42 42 37 30 22 34 39 41 41 39 36 35 32 30 26 21 18 17 15 13 11 6 5 4 5
31 31 34 32 32 30 32 31 32 32 30 33 34 33 43 39 35 39 41 39 34 23 26 37 42 39 36 36 38 37 38 33 26 22 20 18 14 11 9 5 6 4 8
27 27 32 31 31 30 33 30 28 29 31 36 37 40 43 44 36 33 32 33 36 33 34 42 41 39 40 40 38 35 31 29 26 23 19 18 13 10 6 9 5 6 6
9 26 26 31 29 32 30 34 36 36 24 26 34 35 31 31 34 37 39 41 40 40 42 43 42 42 40 39 37 34 31 28 25 23 19 16 12 12 10 8 6 5 6
8 9 12 23 32 31 31 31 29 32 27 22 25 27 31 34 37 40 40 39 43 45 43 42 44 44 41 36 28 26 26 25 23 20 17 15 14 10 7 8 4 4 6
Wind_Direction
134 126 128 108 91 71 95 77 99 107 96 109 127 136 138 143 144 138 139 138 129 134 143 138 143 150 144 141 137 138 137 128 121 122 150 175 179 184 193 207 201 211 214
154 141 128 116 102 92 99 82 101 99 100 99 115 131 142 143 149 144 140 138 134 134 138 141 141 147 141 145 145 136 138 144 139 133 150 162 164 176 189 190 205 220 217
153 139 135 127 116 115 113 99 87 116 117 112 104 121 137 144 145 144 144 146 143 136 143 149 148 151 145 148 142 142 151 151 162 162 165 169 173 181 187 191 211 219 234
150 145 137 128 133 124 116 110 103 104 115 119 109 126 133 146 151 153 149 148 145 146 144 147 152 150 148 153 155 154 160 178 178 172 164 169 174 182 188 197 215 227 241
152 147 147 145 159 144 128 134 123 109 100 101 107 116 132 137 144 148 146 149 147 149 152 154 152 159 152 154 160 174 201 178 166 162 164 171 180 187 200 212 222 237 250
155 151 152 154 165 143 132 124 137 119 107 109 114 120 132 130 137 140 141 143 142 149 152 156 154 157 166 176 176 192 223 173 167 165 167 181 196 207 213 217 230 242 275
158 156 159 171 154 138 140 143 132 135 125 119 116 113 116 130 139 138 141 143 144 143 150 150 157 168 175 188 210 229 177 181 179 179 187 194 196 209 214 219 230 242 247
163 163 164 178 158 157 157 133 125 139 124 129 129 120 122 126 133 141 144 143 146 148 150 149 152 164 181 191 183 160 147 155 149 175 198 192 206 214 230 234 247 250 256
168 168 170 178 168 172 161 153 136 139 130 135 136 136 133 128 130 131 132 134 137 143 152 159 159 163 163 166 171 164 152 142 136 139 145 154 191 209 225 234 235 257 292
184 175 176 178 175 177 166 164 160 152 155 144 145 147 142 138 138 140 142 140 133 138 143 151 163 164 160 167 170 167 161 160 172 173 166 192 213 192 210 213 244 220 26
188 181 180 180 180 179 171 169 171 171 161 165 160 164 165 161 153 152 160 162 155 151 156 163 170 175 169 169 169 165 164 164 154 137 130 160 227 225 224 103 105 79 79
189 183 181 181 177 180 174 172 173 180 190 181 174 177 178 187 191 180 166 182 180 182 182 177 172 173 170 159 166 166 156 153 147 138 122 115 111 99 105 115 114 81 65
193 182 180 181 179 181 178 178 180 189 197 193 184 176 186 192 195 203 194 184 187 191 187 181 170 168 172 170 172 172 173 167 148 129 118 110 105 109 110 106 107 104 82
196 184 177 177 177 182 185 185 188 194 199 199 185 186 190 196 203 201 195 193 186 191 178 170 169 170 178 186 190 193 188 167 150 133 120 117 115 110 102 93 78 57 60
197 180 173 176 180 181 187 189 195 202 206 205 205 202 201 198 205 201 193 188 173 170 166 166 169 180 189 186 183 174 157 151 139 134 134 128 111 97 74 71 71 74 69
189 170 172 173 178 178 182 186 202 206 213 214 217 214 217 222 214 203 198 194 183 177 175 177 182 190 202 198 192 176 161 157 149 147 138 123 104 91 92 83 88 76 61
189 173 173 174 175 174 179 184 192 206 216 214 219 226 224 220 215 205 200 199 195 189 197 201 204 203 207 193 182 182 166 154 149 142 131 114 103 106 107 96 87 76 73
198 184 175 177 180 179 183 188 193 196 202 208 215 218 221 223 211 206 198 196 195 204 212 213 212 214 222 189 168 156 148 148 146 138 127 123 124 128 115 105 95 84 79
195 192 183 179 184 187 187 192 198 197 203 207 212 217 221 215 210 208 199 195 197 203 210 215 214 207 182 174 167 161 160 158 150 142 137 135 138 140 124 113 93 74 66
194 196 190 188 184 187 191 190 197 199 195 200 210 215 204 201 199 199 195 199 201 205 208 209 200 183 174 172 167 161 154 149 147 146 145 148 143 135 123 113 94 76 80
193 195 196 189 190 190 194 196 196 202 200 198 205 214 213 204 201 201 198 202 208 208 209 206 188 178 173 168 161 159 155 150 148 149 147 147 142 133 123 117 110 65 45
189 189 193 194 193 197 200 201 203 199 205 203 199 211 214 208 204 202 200 201 201 196 199 187 181 178 175 167 164 159 156 154 152 152 151 144 142 143 144 132 121 88 28
189 184 191 196 198 201 205 209 205 207 203 205 208 205 203 203 204 202 202 202 204 199 193 190 183 176 171 170 167 166 162 158 155 155 155 154 148 154 152 142 131 69 25
195 190 188 194 197 201 210 217 216 219 214 210 205 206 208 201 202 198 193 195 195 189 194 187 178 171 166 164 165 161 154 152 152 153 156 158 152 149 161 140 97 72 61
178 205 194 193 196 201 208 213 217 227 239 229 216 207 197 187 191 185 184 180 175 174 173 170 166 164 165 163 157 153 152 156 158 159 156 156 165 159 152 123 105 74 41
228 216 216 203 200 202 204 211 211 209 216 213 206 190 179 174 168 165 161 160 162 161 159 163 165 159 156 153 153 154 159 161 160 162 163 166 163 152 140 123 103 69 52